16-08-2022, 00:00:00,    324,    0.0,   17.7,   0.00,   0.00, 1004.5,   62.9, -999.0
16-08-2022, 00:00:10,    324,    0.0,   17.7,   0.00,   0.00, 1004.4,   62.9, -999.0
16-08-2022, 00:00:20,    324,    0.0,   17.6,   0.00,   0.00, 1004.5,   62.8, -999.0
16-08-2022, 00:00:30,    325,    0.0,   17.6,   0.00,   0.00, 1004.4,   62.9, -999.0
16-08-2022, 00:00:40,    324,    0.0,   17.7,   0.00,   0.00, 1004.5,   62.9, -999.0
16-08-2022, 00:00:50,    324,    0.0,   17.7,   0.00,   0.00, 1004.4,   62.9, -999.0
16-08-2022, 00:01:00,    324,    0.0,   17.7,   0.00,   0.00, 1004.5,   62.9, -999.0
16-08-2022, 00:01:10,    324,    0.0,   17.8,   0.00,   0.00, 1004.5,   62.9, -999.0
16-08-2022, 00:01:20,    324,    0.0,   17.7,   0.00,   0.00, 1004.5,   62.8, -999.0
16-08-2022, 00:01:30,    317,    0.0,   17.7,   0.00,   0.00, 1004.5,   62.8, -999.0
16-08-2022, 00:01:40,    324,    0.0,   17.7,   0.00,   0.00, 1004.5,   62.9, -999.0
16-08-2022, 00:01:50,    325,    0.0,   17.6,   0.00,   0.00, 1004.5,   62.9, -999.0
16-08-2022, 00:01:59,    324,    0.0,   17.6,   0.00,   0.00, 1004.4,   63.0, -999.0
16-08-2022, 00:02:10,    324,    0.0,   17.6,   0.00,   0.00, 1004.5,   63.1, -999.0
16-08-2022, 00:02:20,    324,    0.0,   17.7,   0.00,   0.00, 1004.4,   63.2, -999.0
16-08-2022, 00:02:29,    324,    0.0,   17.7,   0.00,   0.00, 1004.5,   63.2, -999.0
16-08-2022, 00:02:40,    324,    0.0,   17.7,   0.00,   0.00, 1004.5,   63.2, -999.0
16-08-2022, 00:02:49,    324,    0.0,   17.6,   0.00,   0.00, 1004.4,   63.3, -999.0
16-08-2022, 00:02:59,    325,    0.0,   17.6,   0.00,   0.00, 1004.5,   63.3, -999.0
16-08-2022, 00:03:09,    324,    0.0,   17.7,   0.00,   0.00, 1004.4,   63.4, -999.0
16-08-2022, 00:03:19,    325,    0.0,   17.7,   0.00,   0.00, 1004.4,   63.3, -999.0
16-08-2022, 00:03:29,    324,    0.0,   17.6,   0.00,   0.00, 1004.4,   63.3, -999.0
16-08-2022, 00:03:39,    324,    0.0,   17.6,   0.00,   0.00, 1004.4,   63.5, -999.0
16-08-2022, 00:03:49,    324,    0.0,   17.6,   0.00,   0.00, 1004.4,   63.5, -999.0
16-08-2022, 00:03:59,    324,    0.0,   17.6,   0.00,   0.00, 1004.5,   63.5, -999.0
16-08-2022, 00:04:09,    325,    0.0,   17.5,   0.00,   0.00, 1004.4,   63.6, -999.0
16-08-2022, 00:04:19,    324,    0.0,   17.5,   0.00,   0.00, 1004.4,   63.5, -999.0
16-08-2022, 00:04:29,    324,    0.0,   17.6,   0.00,   0.00, 1004.4,   63.7, -999.0
16-08-2022, 00:04:39,    325,    0.0,   17.6,   0.00,   0.00, 1004.4,   63.6, -999.0
16-08-2022, 00:04:49,    324,    0.0,   17.5,   0.00,   0.00, 1004.4,   63.6, -999.0
16-08-2022, 00:04:58,    325,    0.0,   17.5,   0.00,   0.00, 1004.4,   63.7, -999.0
16-08-2022, 00:05:09,    324,    0.0,   17.5,   0.00,   0.00, 1004.4,   63.7, -999.0
16-08-2022, 00:05:19,    325,    0.0,   17.6,   0.00,   0.00, 1004.4,   63.7, -999.0
16-08-2022, 00:05:28,    324,    0.0,   17.4,   0.00,   0.00, 1004.4,   63.7, -999.0
16-08-2022, 00:05:38,    324,    0.0,   17.5,   0.00,   0.00, 1004.4,   63.8, -999.0
16-08-2022, 00:05:49,    324,    0.0,   17.5,   0.00,   0.00, 1004.4,   63.8, -999.0
16-08-2022, 00:05:58,    324,    0.0,   17.5,   0.00,   0.00, 1004.4,   63.9, -999.0
16-08-2022, 00:06:08,    324,    0.0,   17.5,   0.00,   0.00, 1004.4,   63.9, -999.0
16-08-2022, 00:06:18,    324,    0.0,   17.4,   0.00,   0.00, 1004.4,   63.8, -999.0
16-08-2022, 00:06:28,    324,    0.0,   17.4,   0.00,   0.00, 1004.4,   63.9, -999.0
16-08-2022, 00:06:38,    324,    0.0,   17.3,   0.00,   0.00, 1004.4,   64.0, -999.0
16-08-2022, 00:06:48,    325,    0.0,   17.5,   0.00,   0.00, 1004.3,   64.1, -999.0
16-08-2022, 00:06:58,    324,    0.0,   17.5,   0.00,   0.00, 1004.4,   64.1, -999.0
16-08-2022, 00:07:08,    325,    0.0,   17.4,   0.00,   0.00, 1004.4,   64.1, -999.0
16-08-2022, 00:07:18,    324,    0.0,   17.5,   0.00,   0.00, 1004.4,   64.1, -999.0
16-08-2022, 00:07:28,    324,    0.0,   17.5,   0.00,   0.00, 1004.4,   64.1, -999.0
16-08-2022, 00:07:38,    324,    0.0,   17.4,   0.00,   0.00, 1004.3,   64.2, -999.0
16-08-2022, 00:07:48,    324,    0.0,   17.5,   0.00,   0.00, 1004.4,   64.2, -999.0
16-08-2022, 00:07:58,    324,    0.0,   17.4,   0.00,   0.00, 1004.4,   64.2, -999.0
16-08-2022, 00:08:07,    324,    0.0,   17.4,   0.00,   0.00, 1004.3,   64.2, -999.0
16-08-2022, 00:08:18,    324,    0.0,   17.4,   0.00,   0.00, 1004.3,   64.3, -999.0
16-08-2022, 00:08:27,    324,    0.0,   17.4,   0.00,   0.00, 1004.3,   64.3, -999.0
16-08-2022, 00:08:37,    324,    0.0,   17.4,   0.00,   0.00, 1004.3,   64.3, -999.0
16-08-2022, 00:08:47,    324,    0.0,   17.4,   0.00,   0.00, 1004.3,   64.4, -999.0
16-08-2022, 00:08:57,    324,    0.0,   17.4,   0.00,   0.00, 1004.4,   64.3, -999.0
16-08-2022, 00:09:07,    324,    0.0,   17.4,   0.00,   0.00, 1004.3,   64.3, -999.0
16-08-2022, 00:09:17,    324,    0.0,   17.4,   0.00,   0.00, 1004.4,   64.4, -999.0
16-08-2022, 00:09:27,    324,    0.0,   17.4,   0.00,   0.00, 1004.4,   64.5, -999.0
16-08-2022, 00:09:37,    324,    0.0,   17.4,   0.00,   0.00, 1004.4,   64.5, -999.0
16-08-2022, 00:09:47,    324,    0.0,   17.4,   0.00,   0.00, 1004.4,   64.6, -999.0
16-08-2022, 00:09:57,    324,    0.0,   17.4,   0.00,   0.00, 1004.4,   64.7, -999.0
16-08-2022, 00:10:07,    325,    0.0,   17.4,   0.00,   0.00, 1004.4,   64.6, -999.0
16-08-2022, 00:10:17,    324,    0.0,   17.4,   0.00,   0.00, 1004.4,   64.6, -999.0
16-08-2022, 00:10:27,    324,    0.0,   17.4,   0.00,   0.00, 1004.4,   64.6, -999.0
16-08-2022, 00:10:36,    324,    0.0,   17.3,   0.00,   0.00, 1004.4,   64.7, -999.0
16-08-2022, 00:10:47,    325,    0.0,   17.4,   0.00,   0.00, 1004.4,   64.6, -999.0
16-08-2022, 00:10:57,    324,    0.0,   17.4,   0.00,   0.00, 1004.4,   64.7, -999.0
16-08-2022, 00:11:06,    324,    0.0,   17.4,   0.00,   0.00, 1004.4,   64.8, -999.0
16-08-2022, 00:11:16,    325,    0.0,   17.4,   0.00,   0.00, 1004.4,   64.8, -999.0
16-08-2022, 00:11:26,    324,    0.0,   17.3,   0.00,   0.00, 1004.4,   64.7, -999.0
16-08-2022, 00:11:36,    324,    0.0,   17.3,   0.00,   0.00, 1004.4,   64.7, -999.0
16-08-2022, 00:11:46,    324,    0.0,   17.3,   0.00,   0.00, 1004.4,   64.7, -999.0
16-08-2022, 00:11:56,    325,    0.0,   17.3,   0.00,   0.00, 1004.4,   64.8, -999.0
16-08-2022, 00:12:06,    324,    0.0,   17.3,   0.00,   0.00, 1004.3,   64.8, -999.0
16-08-2022, 00:12:16,    324,    0.0,   17.3,   0.00,   0.00, 1004.4,   64.8, -999.0
16-08-2022, 00:12:26,    325,    0.0,   17.3,   0.00,   0.00, 1004.4,   64.9, -999.0
16-08-2022, 00:12:36,    324,    0.0,   17.3,   0.00,   0.00, 1004.4,   64.9, -999.0
16-08-2022, 00:12:46,    325,    0.0,   17.3,   0.00,   0.00, 1004.4,   65.0, -999.0
16-08-2022, 00:12:56,    324,    0.0,   17.3,   0.00,   0.00, 1004.4,   64.9, -999.0
16-08-2022, 00:13:06,    324,    0.0,   17.3,   0.00,   0.00, 1004.4,   65.0, -999.0
16-08-2022, 00:13:16,    324,    0.0,   17.3,   0.00,   0.00, 1004.4,   65.1, -999.0
16-08-2022, 00:13:26,    324,    0.0,   17.3,   0.00,   0.00, 1004.4,   65.0, -999.0
16-08-2022, 00:13:35,    324,    0.0,   17.3,   0.00,   0.00, 1004.4,   65.0, -999.0
16-08-2022, 00:13:45,    324,    0.0,   17.3,   0.00,   0.00, 1004.4,   65.2, -999.0
16-08-2022, 00:13:56,    324,    0.0,   17.4,   0.00,   0.00, 1004.4,   65.2, -999.0
16-08-2022, 00:14:05,    324,    0.0,   17.4,   0.00,   0.00, 1004.4,   65.1, -999.0
16-08-2022, 00:14:15,    325,    0.0,   17.4,   0.00,   0.00, 1004.4,   65.1, -999.0
16-08-2022, 00:14:26,    324,    0.0,   17.4,   0.00,   0.00, 1004.4,   65.1, -999.0
16-08-2022, 00:14:35,    325,    0.0,   17.4,   0.00,   0.00, 1004.4,   65.2, -999.0
16-08-2022, 00:14:45,    325,    0.0,   17.4,   0.00,   0.00, 1004.4,   65.2, -999.0
16-08-2022, 00:14:55,    325,    0.0,   17.4,   0.00,   0.00, 1004.4,   65.2, -999.0
16-08-2022, 00:15:05,    325,    0.0,   17.4,   0.00,   0.00, 1004.4,   65.2, -999.0
16-08-2022, 00:15:15,    324,    0.0,   17.4,   0.00,   0.00, 1004.4,   65.2, -999.0
16-08-2022, 00:15:25,    324,    0.0,   17.4,   0.00,   0.00, 1004.4,   65.3, -999.0
16-08-2022, 00:15:35,    324,    0.0,   17.5,   0.00,   0.00, 1004.4,   65.2, -999.0
16-08-2022, 00:15:45,    324,    0.0,   17.5,   0.00,   0.00, 1004.4,   65.1, -999.0
16-08-2022, 00:15:55,    324,    0.0,   17.4,   0.00,   0.00, 1004.5,   65.1, -999.0
16-08-2022, 00:16:05,    324,    0.0,   17.4,   0.00,   0.00, 1004.4,   65.0, -999.0
16-08-2022, 00:16:14,    324,    0.0,   17.4,   0.00,   0.00, 1004.5,   65.0, -999.0
16-08-2022, 00:16:25,    324,    0.0,   17.4,   0.00,   0.00, 1004.5,   65.0, -999.0
16-08-2022, 00:16:35,    324,    0.0,   17.4,   0.00,   0.00, 1004.5,   65.0, -999.0
16-08-2022, 00:16:44,    324,    0.0,   17.4,   0.00,   0.00, 1004.4,   65.0, -999.0
16-08-2022, 00:16:55,    324,    0.0,   17.4,   0.00,   0.00, 1004.4,   65.1, -999.0
16-08-2022, 00:17:04,    325,    0.0,   17.3,   0.00,   0.00, 1004.4,   65.1, -999.0
16-08-2022, 00:17:14,    324,    0.0,   17.3,   0.00,   0.00, 1004.4,   65.1, -999.0
16-08-2022, 00:17:24,    324,    0.0,   17.3,   0.00,   0.00, 1004.4,   65.1, -999.0
16-08-2022, 00:17:34,    324,    0.0,   17.4,   0.00,   0.00, 1004.5,   65.1, -999.0
16-08-2022, 00:17:44,    325,    0.0,   17.4,   0.00,   0.00, 1004.5,   65.2, -999.0
16-08-2022, 00:17:54,    324,    0.0,   17.4,   0.00,   0.00, 1004.4,   65.3, -999.0
16-08-2022, 00:18:04,    324,    0.0,   17.4,   0.00,   0.00, 1004.4,   65.2, -999.0
16-08-2022, 00:18:14,    324,    0.0,   17.4,   0.00,   0.00, 1004.4,   65.2, -999.0
16-08-2022, 00:18:24,    325,    0.0,   17.3,   0.00,   0.00, 1004.5,   65.2, -999.0
16-08-2022, 00:18:34,    324,    0.0,   17.4,   0.00,   0.00, 1004.5,   65.2, -999.0
16-08-2022, 00:18:44,    324,    0.0,   17.4,   0.00,   0.00, 1004.4,   65.3, -999.0
16-08-2022, 00:18:54,    324,    0.0,   17.4,   0.00,   0.00, 1004.4,   65.2, -999.0
16-08-2022, 00:19:04,    324,    0.0,   17.5,   0.00,   0.00, 1004.4,   65.3, -999.0
16-08-2022, 00:19:13,    324,    0.0,   17.5,   0.00,   0.00, 1004.4,   65.2, -999.0
16-08-2022, 00:19:24,    325,    0.0,   17.5,   0.00,   0.00, 1004.4,   65.3, -999.0
16-08-2022, 00:19:34,    324,    0.0,   17.5,   0.00,   0.00, 1004.4,   65.2, -999.0
16-08-2022, 00:19:43,    324,    0.0,   17.5,   0.00,   0.00, 1004.4,   65.2, -999.0
16-08-2022, 00:19:53,    324,    0.0,   17.5,   0.00,   0.00, 1004.4,   65.2, -999.0
16-08-2022, 00:20:04,    325,    0.0,   17.4,   0.00,   0.00, 1004.4,   65.2, -999.0
16-08-2022, 00:20:13,    324,    0.0,   17.4,   0.00,   0.00, 1004.4,   65.2, -999.0
16-08-2022, 00:20:23,    324,    0.0,   17.5,   0.00,   0.00, 1004.4,   65.2, -999.0
16-08-2022, 00:20:33,    324,    0.0,   17.5,   0.00,   0.00, 1004.4,   65.2, -999.0
16-08-2022, 00:20:43,    325,    0.0,   17.5,   0.00,   0.00, 1004.4,   65.3, -999.0
16-08-2022, 00:20:53,    325,    0.0,   17.4,   0.00,   0.00, 1004.4,   65.2, -999.0
16-08-2022, 00:21:03,    325,    0.0,   17.4,   0.00,   0.00, 1004.4,   65.3, -999.0
16-08-2022, 00:21:13,    324,    0.0,   17.5,   0.00,   0.00, 1004.4,   65.2, -999.0
16-08-2022, 00:21:23,    324,    0.0,   17.4,   0.00,   0.00, 1004.4,   65.3, -999.0
16-08-2022, 00:21:33,    324,    0.0,   17.5,   0.00,   0.00, 1004.4,   65.2, -999.0
16-08-2022, 00:21:43,    325,    0.0,   17.5,   0.00,   0.00, 1004.4,   65.2, -999.0
16-08-2022, 00:21:53,    324,    0.0,   17.4,   0.00,   0.00, 1004.4,   65.3, -999.0
16-08-2022, 00:22:03,    325,    0.0,   17.5,   0.00,   0.00, 1004.4,   65.2, -999.0
16-08-2022, 00:22:12,    324,    0.0,   17.5,   0.00,   0.00, 1004.4,   65.2, -999.0
16-08-2022, 00:22:22,    324,    0.0,   17.4,   0.00,   0.00, 1004.4,   65.3, -999.0
16-08-2022, 00:22:33,    324,    0.0,   17.2,   0.00,   0.00, 1004.4,   65.2, -999.0
16-08-2022, 00:22:42,    324,    0.0,   17.4,   0.00,   0.00, 1004.4,   65.2, -999.0
16-08-2022, 00:22:52,    325,    0.0,   17.4,   0.00,   0.00, 1004.4,   65.3, -999.0
16-08-2022, 00:23:02,    325,    0.0,   17.4,   0.00,   0.00, 1004.4,   65.3, -999.0
16-08-2022, 00:23:12,    324,    0.0,   17.4,   0.00,   0.00, 1004.4,   65.3, -999.0
16-08-2022, 00:23:22,    324,    0.0,   17.3,   0.00,   0.00, 1004.4,   65.3, -999.0
16-08-2022, 00:23:32,    325,    0.0,   17.4,   0.00,   0.00, 1004.4,   65.3, -999.0
16-08-2022, 00:23:42,    325,    0.0,   17.4,   0.00,   0.00, 1004.4,   65.5, -999.0
16-08-2022, 00:23:52,    329,    0.0,   17.3,   0.00,   0.00, 1004.4,   65.4, -999.0
16-08-2022, 00:24:02,    324,    0.0,   17.3,   0.00,   0.00, 1004.4,   65.5, -999.0
16-08-2022, 00:24:12,    325,    0.0,   17.4,   0.00,   0.00, 1004.4,   65.5, -999.0
16-08-2022, 00:24:22,    324,    0.0,   17.4,   0.00,   0.00, 1004.4,   65.6, -999.0
16-08-2022, 00:24:32,    324,    0.0,   17.4,   0.00,   0.00, 1004.4,   65.5, -999.0
16-08-2022, 00:24:42,    324,    0.0,   17.4,   0.00,   0.00, 1004.4,   65.3, -999.0
16-08-2022, 00:24:51,    325,    0.0,   17.3,   0.00,   0.00, 1004.4,   65.4, -999.0
16-08-2022, 00:25:02,    324,    0.0,   17.3,   0.00,   0.00, 1004.4,   65.4, -999.0
16-08-2022, 00:25:12,    324,    0.0,   17.3,   0.00,   0.00, 1004.4,   65.4, -999.0
16-08-2022, 00:25:21,    324,    0.0,   17.3,   0.00,   0.00, 1004.4,   65.5, -999.0
16-08-2022, 00:25:32,    324,    0.0,   17.3,   0.00,   0.00, 1004.4,   65.5, -999.0
16-08-2022, 00:25:41,    324,    0.0,   17.3,   0.00,   0.00, 1004.4,   65.5, -999.0
16-08-2022, 00:25:51,    324,    0.0,   17.3,   0.00,   0.00, 1004.4,   65.5, -999.0
16-08-2022, 00:26:01,    324,    0.0,   17.3,   0.00,   0.00, 1004.4,   65.5, -999.0
16-08-2022, 00:26:11,    324,    0.0,   17.3,   0.00,   0.00, 1004.4,   65.5, -999.0
16-08-2022, 00:26:21,    324,    0.0,   17.3,   0.00,   0.00, 1004.4,   65.5, -999.0
16-08-2022, 00:26:31,    324,    0.0,   17.3,   0.00,   0.00, 1004.4,   65.5, -999.0
16-08-2022, 00:26:41,    325,    0.0,   17.2,   0.00,   0.00, 1004.4,   65.6, -999.0
16-08-2022, 00:26:51,    326,    0.0,   17.2,   0.00,   0.00, 1004.4,   65.6, -999.0
16-08-2022, 00:27:01,    325,    0.0,   17.3,   0.00,   0.00, 1004.4,   65.5, -999.0
16-08-2022, 00:27:11,    325,    0.0,   17.3,   0.00,   0.00, 1004.4,   65.6, -999.0
16-08-2022, 00:27:21,    324,    0.0,   17.2,   0.00,   0.00, 1004.4,   65.7, -999.0
16-08-2022, 00:27:31,    325,    0.0,   17.3,   0.00,   0.00, 1004.4,   65.7, -999.0
16-08-2022, 00:27:41,    324,    0.0,   17.2,   0.00,   0.00, 1004.4,   65.5, -999.0
16-08-2022, 00:27:50,    324,    0.0,   17.2,   0.00,   0.00, 1004.4,   65.6, -999.0
16-08-2022, 00:28:01,    324,    0.0,   17.1,   0.00,   0.00, 1004.4,   65.7, -999.0
16-08-2022, 00:28:11,    324,    0.0,   17.2,   0.00,   0.00, 1004.3,   65.6, -999.0
16-08-2022, 00:28:20,    325,    0.0,   17.1,   0.00,   0.00, 1004.3,   65.7, -999.0
16-08-2022, 00:28:30,    324,    0.0,   17.2,   0.00,   0.00, 1004.4,   65.5, -999.0
16-08-2022, 00:28:40,    325,    0.0,   17.1,   0.00,   0.00, 1004.3,   65.5, -999.0
16-08-2022, 00:28:50,    324,    0.0,   17.1,   0.00,   0.00, 1004.3,   65.6, -999.0
16-08-2022, 00:29:00,    324,    0.0,   17.1,   0.00,   0.00, 1004.4,   65.6, -999.0
16-08-2022, 00:29:10,    324,    0.0,   17.2,   0.00,   0.00, 1004.3,   65.6, -999.0
16-08-2022, 00:29:20,    324,    0.0,   17.2,   0.00,   0.00, 1004.3,   65.6, -999.0
16-08-2022, 00:29:30,    324,    0.0,   17.2,   0.00,   0.00, 1004.3,   65.7, -999.0
16-08-2022, 00:29:40,    324,    0.0,   17.1,   0.00,   0.00, 1004.3,   65.6, -999.0
16-08-2022, 00:29:50,    325,    0.0,   17.1,   0.00,   0.00, 1004.4,   65.7, -999.0
16-08-2022, 00:30:00,    324,    0.0,   17.2,   0.00,   0.00, 1004.3,   65.8, -999.0
16-08-2022, 00:30:10,    324,    0.0,   17.2,   0.00,   0.00, 1004.3,   65.8, -999.0
16-08-2022, 00:30:20,    324,    0.0,   17.2,   0.00,   0.00, 1004.3,   65.8, -999.0
16-08-2022, 00:30:30,    324,    0.0,   17.2,   0.00,   0.00, 1004.3,   65.8, -999.0
16-08-2022, 00:30:40,    324,    0.0,   17.2,   0.00,   0.00, 1004.3,   65.8, -999.0
16-08-2022, 00:30:50,    324,    0.0,   17.2,   0.00,   0.00, 1004.3,   65.6, -999.0
16-08-2022, 00:30:59,    324,    0.0,   17.2,   0.00,   0.00, 1004.3,   65.7, -999.0
16-08-2022, 00:31:10,    324,    0.0,   17.3,   0.00,   0.00, 1004.3,   65.6, -999.0
16-08-2022, 00:31:19,    324,    0.0,   17.2,   0.00,   0.00, 1004.3,   65.6, -999.0
16-08-2022, 00:31:29,    324,    0.0,   17.3,   0.00,   0.00, 1004.3,   65.6, -999.0
16-08-2022, 00:31:39,    325,    0.0,   17.3,   0.00,   0.00, 1004.3,   65.5, -999.0
16-08-2022, 00:31:49,    324,    0.0,   17.3,   0.00,   0.00, 1004.3,   65.5, -999.0
16-08-2022, 00:31:59,    325,    0.0,   17.3,   0.00,   0.00, 1004.3,   65.7, -999.0
16-08-2022, 00:32:09,    324,    0.0,   17.2,   0.00,   0.00, 1004.3,   65.7, -999.0
16-08-2022, 00:32:19,    325,    0.0,   17.3,   0.00,   0.00, 1004.3,   65.6, -999.0
16-08-2022, 00:32:29,    324,    0.0,   17.3,   0.00,   0.00, 1004.3,   65.7, -999.0
16-08-2022, 00:32:39,    324,    0.0,   17.2,   0.00,   0.00, 1004.3,   65.7, -999.0
16-08-2022, 00:32:49,    324,    0.0,   17.3,   0.00,   0.00, 1004.3,   65.7, -999.0
16-08-2022, 00:32:59,    324,    0.0,   17.3,   0.00,   0.00, 1004.3,   65.6, -999.0
16-08-2022, 00:33:09,    324,    0.0,   17.3,   0.00,   0.00, 1004.3,   65.6, -999.0
16-08-2022, 00:33:19,    324,    0.0,   17.3,   0.00,   0.00, 1004.3,   65.7, -999.0
16-08-2022, 00:33:28,    325,    0.0,   17.3,   0.00,   0.00, 1004.3,   65.7, -999.0
16-08-2022, 00:33:39,    324,    0.0,   17.3,   0.00,   0.00, 1004.3,   65.6, -999.0
16-08-2022, 00:33:49,    324,    0.0,   17.3,   0.00,   0.00, 1004.3,   65.7, -999.0
16-08-2022, 00:33:58,    324,    0.0,   17.3,   0.00,   0.00, 1004.3,   65.6, -999.0
16-08-2022, 00:34:09,    324,    0.0,   17.3,   0.00,   0.00, 1004.3,   65.7, -999.0
16-08-2022, 00:34:18,    325,    0.0,   17.2,   0.00,   0.00, 1004.3,   65.7, -999.0
16-08-2022, 00:34:28,    324,    0.0,   17.4,   0.00,   0.00, 1004.3,   65.6, -999.0
16-08-2022, 00:34:38,    325,    0.0,   17.3,   0.00,   0.00, 1004.3,   65.7, -999.0
16-08-2022, 00:34:48,    324,    0.0,   17.3,   0.00,   0.00, 1004.3,   65.7, -999.0
16-08-2022, 00:34:58,    324,    0.0,   17.3,   0.00,   0.00, 1004.3,   65.6, -999.0
16-08-2022, 00:35:08,    324,    0.0,   17.3,   0.00,   0.00, 1004.3,   65.4, -999.0
16-08-2022, 00:35:18,    324,    0.0,   17.4,   0.00,   0.00, 1004.3,   65.5, -999.0
16-08-2022, 00:35:28,    324,    0.0,   17.3,   0.00,   0.00, 1004.3,   65.4, -999.0
16-08-2022, 00:35:38,    324,    0.0,   17.4,   0.00,   0.00, 1004.3,   65.4, -999.0
16-08-2022, 00:35:48,    324,    0.0,   17.4,   0.00,   0.00, 1004.3,   65.4, -999.0
16-08-2022, 00:35:57,    325,    0.0,   17.4,   0.00,   0.00, 1004.3,   65.5, -999.0
16-08-2022, 00:36:08,    324,    0.0,   17.3,   0.00,   0.00, 1004.3,   65.4, -999.0
16-08-2022, 00:36:18,    325,    0.0,   17.4,   0.00,   0.00, 1004.3,   65.3, -999.0
16-08-2022, 00:36:27,    324,    0.0,   17.3,   0.00,   0.00, 1004.3,   65.3, -999.0
16-08-2022, 00:36:38,    324,    0.0,   17.4,   0.00,   0.00, 1004.3,   65.2, -999.0
16-08-2022, 00:36:48,    327,    0.0,   17.3,   0.00,   0.00, 1004.3,   65.2, -999.0
16-08-2022, 00:36:57,    324,    0.0,   17.4,   0.00,   0.00, 1004.3,   65.3, -999.0
16-08-2022, 00:37:07,    324,    0.0,   17.5,   0.00,   0.00, 1004.3,   65.2, -999.0
16-08-2022, 00:37:17,    324,    0.0,   17.4,   0.00,   0.00, 1004.3,   65.2, -999.0
16-08-2022, 00:37:27,    324,    0.0,   17.4,   0.00,   0.00, 1004.3,   65.2, -999.0
16-08-2022, 00:37:37,    324,    0.0,   17.4,   0.00,   0.00, 1004.3,   65.2, -999.0
16-08-2022, 00:37:47,    324,    0.0,   17.4,   0.00,   0.00, 1004.3,   65.2, -999.0
16-08-2022, 00:37:57,    325,    0.0,   17.4,   0.00,   0.00, 1004.3,   65.2, -999.0
16-08-2022, 00:38:07,    324,    0.0,   17.3,   0.00,   0.00, 1004.3,   65.3, -999.0
16-08-2022, 00:38:17,    324,    0.0,   17.3,   0.00,   0.00, 1004.3,   65.2, -999.0
16-08-2022, 00:38:27,    325,    0.0,   17.4,   0.00,   0.00, 1004.3,   65.2, -999.0
16-08-2022, 00:38:37,    324,    0.0,   17.4,   0.00,   0.00, 1004.3,   65.1, -999.0
16-08-2022, 00:38:47,    324,    0.0,   17.4,   0.00,   0.00, 1004.3,   65.0, -999.0
16-08-2022, 00:38:57,    324,    0.0,   17.4,   0.00,   0.00, 1004.3,   64.9, -999.0
16-08-2022, 00:39:07,    324,    0.0,   17.4,   0.00,   0.00, 1004.3,   65.0, -999.0
16-08-2022, 00:39:17,    325,    0.0,   17.4,   0.00,   0.00, 1004.3,   65.1, -999.0
16-08-2022, 00:39:26,    325,    0.0,   17.4,   0.00,   0.00, 1004.3,   65.0, -999.0
16-08-2022, 00:39:36,    324,    0.0,   17.4,   0.00,   0.00, 1004.3,   65.1, -999.0
16-08-2022, 00:39:47,    324,    0.0,   17.5,   0.00,   0.00, 1004.3,   65.0, -999.0
16-08-2022, 00:39:56,    324,    0.0,   17.4,   0.00,   0.00, 1004.3,   64.9, -999.0
16-08-2022, 00:40:06,    325,    0.0,   17.4,   0.00,   0.00, 1004.3,   64.9, -999.0
16-08-2022, 00:40:16,    324,    0.0,   17.5,   0.00,   0.00, 1004.3,   65.0, -999.0
16-08-2022, 00:40:26,    324,    0.0,   17.4,   0.00,   0.00, 1004.3,   64.9, -999.0
16-08-2022, 00:40:36,    324,    0.0,   17.4,   0.00,   0.00, 1004.3,   64.9, -999.0
16-08-2022, 00:40:46,    324,    0.0,   17.4,   0.00,   0.00, 1004.3,   65.0, -999.0
16-08-2022, 00:40:56,    325,    0.0,   17.4,   0.00,   0.00, 1004.3,   65.0, -999.0
16-08-2022, 00:41:06,    324,    0.0,   17.5,   0.00,   0.00, 1004.3,   64.9, -999.0
16-08-2022, 00:41:16,    325,    0.0,   17.3,   0.00,   0.00, 1004.3,   64.8, -999.0
16-08-2022, 00:41:26,    324,    0.0,   17.4,   0.00,   0.00, 1004.3,   65.0, -999.0
16-08-2022, 00:41:36,    325,    0.0,   17.4,   0.00,   0.00, 1004.3,   64.8, -999.0
16-08-2022, 00:41:46,    325,    0.0,   17.3,   0.00,   0.00, 1004.3,   64.9, -999.0
16-08-2022, 00:41:56,    324,    0.0,   17.4,   0.00,   0.00, 1004.3,   64.9, -999.0
16-08-2022, 00:42:05,    324,    0.0,   17.4,   0.00,   0.00, 1004.3,   64.9, -999.0
16-08-2022, 00:42:16,    325,    0.0,   17.4,   0.00,   0.00, 1004.3,   64.9, -999.0
16-08-2022, 00:42:25,    324,    0.0,   17.4,   0.00,   0.00, 1004.3,   65.0, -999.0
16-08-2022, 00:42:35,    324,    0.0,   17.5,   0.00,   0.00, 1004.3,   64.9, -999.0
16-08-2022, 00:42:46,    324,    0.0,   17.4,   0.00,   0.00, 1004.3,   64.9, -999.0
16-08-2022, 00:42:55,    324,    0.0,   17.4,   0.00,   0.00, 1004.3,   64.9, -999.0
16-08-2022, 00:43:05,    324,    0.0,   17.4,   0.00,   0.00, 1004.3,   64.8, -999.0
16-08-2022, 00:43:15,    325,    0.0,   17.3,   0.00,   0.00, 1004.3,   64.9, -999.0
16-08-2022, 00:43:25,    325,    0.0,   17.4,   0.00,   0.00, 1004.3,   64.9, -999.0
16-08-2022, 00:43:35,    324,    0.0,   17.4,   0.00,   0.00, 1004.3,   65.0, -999.0
16-08-2022, 00:43:45,    323,    0.0,   17.4,   0.00,   0.00, 1004.3,   65.0, -999.0
16-08-2022, 00:43:55,    325,    0.0,   17.3,   0.00,   0.00, 1004.3,   64.9, -999.0
16-08-2022, 00:44:05,    324,    0.0,   17.3,   0.00,   0.00, 1004.3,   64.9, -999.0
16-08-2022, 00:44:15,    324,    0.0,   17.3,   0.00,   0.00, 1004.3,   64.9, -999.0
16-08-2022, 00:44:25,    324,    0.0,   17.3,   0.00,   0.00, 1004.3,   65.0, -999.0
16-08-2022, 00:44:34,    324,    0.0,   17.3,   0.00,   0.00, 1004.3,   65.0, -999.0
16-08-2022, 00:44:45,    325,    0.0,   17.4,   0.00,   0.00, 1004.3,   65.0, -999.0
16-08-2022, 00:44:55,    325,    0.0,   17.2,   0.00,   0.00, 1004.3,   65.0, -999.0
16-08-2022, 00:45:04,    324,    0.0,   17.4,   0.00,   0.00, 1004.3,   65.1, -999.0
16-08-2022, 00:45:15,    324,    0.0,   17.3,   0.00,   0.00, 1004.3,   65.1, -999.0
16-08-2022, 00:45:25,    324,    0.0,   17.4,   0.00,   0.00, 1004.3,   65.1, -999.0
16-08-2022, 00:45:34,    324,    0.0,   17.3,   0.00,   0.00, 1004.3,   65.1, -999.0
16-08-2022, 00:45:44,    325,    0.0,   17.3,   0.00,   0.00, 1004.3,   65.0, -999.0
16-08-2022, 00:45:54,    324,    0.0,   17.3,   0.00,   0.00, 1004.3,   65.0, -999.0
16-08-2022, 00:46:04,    324,    0.0,   17.3,   0.00,   0.00, 1004.3,   65.1, -999.0
16-08-2022, 00:46:14,    324,    0.0,   17.2,   0.00,   0.00, 1004.3,   65.1, -999.0
16-08-2022, 00:46:24,    325,    0.0,   17.3,   0.00,   0.00, 1004.3,   65.1, -999.0
16-08-2022, 00:46:34,    324,    0.0,   17.3,   0.00,   0.00, 1004.3,   65.1, -999.0